Regional Weather Roundup
Issued by NWS Charleston, SC

Current Version | Previous Version | Graphics & Text | Print | Product List | Glossary On
Versions: 1 2 3 4 5 6 7 8 9 10 11 12 13 14 15 16 17 18 19 20 21 22 23 24 25 26 27 28 29 30 31 32 33 34 35 36 37 38 39 40 41 42 43 44 45 46 47 48 49 50
000 ASUS42 KCHS 280225 RWRCHS REGIONAL WEATHER ROUNDUP NATIONAL WEATHER SERVICE CHARLESTON SC 1000 PM EDT SUN JUL 27 2014 NOTE: "FAIR" INDICATES FEW OR NO CLOUDS BELOW 12,000 FEET WITH NO SIGNIFICANT WEATHER AND/OR OBSTRUCTIONS TO VISIBILITY. NOT ALL STATIONS ARE QUALITY CONTROLLED BY THE NATIONAL WEATHER SERVICE. USE DATA WITH CAUTION...ESPECIALLY DEWPOINT OBSERVATIONS. SCZ027-030-031-034>040-042>050-280300- ...SOUTH CAROLINA... CITY SKY/WX TMP DP RH WIND PRES REMARKS N CHARLESTON PTCLDY 84 76 76 SW8 29.92R HX 93 WATERFRONT PRK N/A 88 N/A N/A SW10 N/A FORT JOHNSON NOT AVBL MOUNT PLEASANT FAIR 84 81 89 SW7 29.92R HAZE HX 98 JOHNS ISLAND CLEAR 86 77 74 S7 29.93R HX 97 PINOPOLIS N/A 88 73 62 SW3G12 29.81S HX 96 MONCKS CORNER N/A 84 77 79 SW5 29.92R HX 94 SUMMERVILLE NOT AVBL BEAUFORT MCAS CLEAR 84 74 71 W6 29.94R HX 91 BEAUFORT ARPT FAIR 86 77 74 SW5 29.93S HX 97 HILTON HEAD IS CLEAR 82 79 89 S3 29.96S HX 93 GEORGETOWN NOT AVBL WALTERBORO CLEAR 84 72 65 SW6 29.93S ORANGEBURG MOCLDY 83 72 69 SW6 29.92R BARNWELL FAIR 84 73 70 SW3 29.93S HX 91 AIKEN FAIR 86 73 66 SW7 29.95F HX 93 MANNING FAIR 86 75 70 SW7 29.90S HX 95 KINGSTREE NOT AVBL COLUMBIA CLOUDY 89 71 55 W8 29.89R HX 95 SUMTER CLOUDY 86 74 68 SW12 29.88R HX 94 FLORENCE CLOUDY 85 74 69 S7 29.87R HX 92 MYRTLE BEACH CLEAR 86 79 79 S12 29.88S HX 99 N MYRTLE BEACH MOCLDY 85 80 85 SW17 29.88S HX 99 $$ GAZ063-065-086>088-099>101-113>116-118-119-134-136>141-150-280300- ...GEORGIA... CITY SKY/WX TMP DP RH WIND PRES REMARKS SAVANNAH ARPT CLEAR 86 72 62 SW6 29.96R HX 92 HUNTER AAF CLEAR 83 74 73 S6 29.94R FORT STEWART PTCLDY 83 72 70 S2 29.96R STATESBORO NOT AVBL SYLVANIA PTCLDY 85 77 76 SW5 29.95R HX 95 CLAXTON FAIR 81 81 100 CALM 29.97R HX 91 THOMSON MOCLDY 85 78 80 SW3 29.97R HX 97 AUGUSTA-BUSH MOCLDY 80 74 81 S3 29.92R AUGUSTA-DANIEL MOCLDY 87 72 60 SW5 29.94R HX 93 SWAINSBORO FAIR 88 77 70 SW3 29.96S HX 100 VIDALIA N/A 82 73 74 SW3 29.97S ALMA CLEAR 85 71 63 SW5 29.99R HX 90 WAYCROSS CLEAR 86 77 75 SW6 30.00R HX 97 JESUP NOT AVBL BRUNSWICK CLEAR 84 72 65 SW5 29.99R SAINT SIMONS CLEAR 87 75 67 SW7 29.98R HX 96 $$ SCZ027-028-034-036>038-045-046-048>050-GAZ119-141-280300- ...LAKE AND SUPPLEMENTAL COASTAL OBSERVATIONS... STATION/POSITION TIME TEMP WIND PRES WAVE SWELL AIR SEA DIR/SP/G HT/PER HT/PER/DIR (UTC) (F) (DEG/KT/KT) (MB) (FT/S) (FT/S/D) UPR LAKE MARION NOT AVBL WINYAH BAY 0200 85 220/ 10 1012.0S LAKE MURRAY 0100 88 230/ 9/ 13 1011.2S ACE BASIN NERRS 0200 84 CALM 1013.0F FORT PULASKI 0200 87 220/ 3/ 5 1014.6R SAPELO ISLAND 0200 87 210/ 7 1016.0R $$ ANZ835-935-AMZ111-154-330-350-352-354-374-450-454-472-280300- ...C-MAN AND BUOY OBSERVATIONS... STATION/POSITION TIME TEMP WIND PRES WAVE SWELL AIR SEA DIR/SP/G HT/PER HT/PER/DIR (UTC) (F) (DEG/KT/KT) (MB) (FT/S) (FT/S/D) FOLLY BEACH CMAN 0200 85 220/ 17/ 20 1013.8R BUOY 41004 0200 84 84 210/ 17/ 21 1012.4R 4/ 4 2/11 BUOY 41008 0200 85 85 190/ 17/ 19 1014.5R 3/ 4 2/ 80/11 5E ST. MARYS GA 0200 86 N/A 2/ 4 FRYING PAN BUOY NOT AVBL BUOY 41025 0200 VRB 17/ 21 1010.3R 3/ 8 2/130/ 8 CAPE LOOKOUT NC 0200 82 220/ 11/ 17 1011.0R BUOY 41002 0143 82 81 240/ 17/ 21 1015.8R 5/ 6 3/140/10 BUOY 41010 0200 84 84 210/ 12/ 14 1017.9R 3/10 2/150/10 BUOY 41012 NOT AVBL ST AUGUSTINE FL 0200 85 230/ 7/ 11 1017.4R CAPERS NEARSHORE 0100 85 230/ 17/ 21 N/A FRIPP NEARSHORE NOT AVBL $$

USA.gov is the U.S. government's official web portal to all federal, state and local government web resources and services.